Regional Weather Roundup
Issued by NWS

Home | Current Version | Previous Version | Text Only | Print | Product List | Glossary On
Versions: 1 2 3 4 5 6 7 8 9 10 11 12 13 14 15 16 17 18 19 20 21 22 23 24 25 26 27 28 29 30 31 32 33 34 35 36 37 38 39 40 41 42 43 44 45 46 47 48 49 50
000
ASUS46 KLOX 170412
RWRCA

SOUTHERN CALIFORNIA WEATHER ROUNDUP
NATIONAL WEATHER SERVICE OXNARD CALIFORNIA
900 PM PDT TUE SEP 16 2014

NOTE: "FAIR" INDICATES FEW OR NO CLOUDS BELOW 12,000 FEET WITH NO
SIGNIFICANT WEATHER AND/OR OBSTRUCTIONS TO VISIBILITY.

  -  STATIONS PRECEEDED BY AN ASTERISK (*) ARE NOT NWS OR FAA
     STATIONS AND ARE NOT SUBJECT TO NWS AND FAA QUALITY CONTROL.

CAZ041-042-087-170500-
LA AND ORANGE COUNTY COASTAL AREAS


CITY           SKY/WX    TMP DP  RH WIND       PRES   REMARKS
L.A. DOWNTOWN  CLEAR     80  59  48 CALM      29.71S
L.A. AIRPORT   PTCLDY    77  62  59 CALM      29.72R
LONG BEACH     CLEAR     84  55  36 NW8       29.72R

CITY           SKY/WX    TMP DP  RH WIND       PRES   REMARKS
AVALON           N/A     77 N/A N/A S1          N/A
FULLERTON      CLEAR     85  54  34 NW7       29.71R
*GETTY CENTER    N/A     84  50  30 NE6         N/A
HAWTHORNE      CLEAR     79  61  53 SW5       29.72R
*LEO CARRILLO    N/A     73  63  71 N3          N/A
*LOS ALAMITOS  CLEAR     83  56  38 VRB5      29.72S
*REDONDO BEACH   N/A     77  58  51 CALM      29.72R
SANTA ANA      CLEAR     93  53  25 CALM      29.72R HX  90
STA MONICA APT CLEAR     77  61  57 CALM      29.72S
*STA MON PIER    N/A     77  65  67 CALM      29.70S
*UCLA            N/A     79  59  50 CALM      29.70F

$$

CAZ547-548-048-170500-
LA COUNTY VALLEYS AND INLAND EMPIRE


CITY           SKY/WX    TMP DP  RH WIND       PRES   REMARKS
BURBANK        PTCLDY    91  53  27 CALM      29.74R
VAN NUYS       PTCLDY    91  52  26 CALM      29.74R

CITY           SKY/WX    TMP DP  RH WIND       PRES   REMARKS
CORONA AIRPORT CLEAR     82  64  54 CALM      29.75R
*CHATSWORTH      N/A     89  59  36 CALM      29.68S
CHINO          CLEAR     88  59  37 CALM      29.76R
MARCH AFB      CLEAR     83  57  40 CALM      29.82R
*NORTHRIDGE      N/A     88  52  29 CALM        N/A
ONTARIO        PTCLDY    91  57  31 S3        29.77R
*PASADENA        N/A     90  59  35 E1          N/A
POMONA         PTCLDY    86  55  35 CALM      29.80R
RIVERSIDE      CLEAR     91  62  37 SE5       29.77R HX  91
SAN BERNARDINO NOT AVBL
*SAN GABRIEL     N/A     86  54  33 CALM      29.68R
*SAN RAFAEL HI   N/A     87  56  34 W5          N/A
*SAUGUS          N/A     88  52  28 SW6         N/A
*WHITEMAN AP   NOT AVBL
*WOODLAND HILL   N/A     84  52  32 S1          N/A

$$

CAZ054-055-170500-
LA AND SAN BERNARDINO COUNTY MOUNTAINS


CITY           SKY/WX    TMP DP  RH WIND       PRES   REMARKS
*BIG BEAR AIRP CLEAR     59  50  72 CALM      30.22R
MT WILSON NWS    N/A     70  45  40 S2          N/A
SANDBERG       CLEAR     78  37  22 N12       30.05R

$$

CAZ028-029-059-060-099-170500-
ANTELOPE VALLEY AND SURROUNDING AREAS


CITY           SKY/WX    TMP DP  RH WIND       PRES   REMARKS
LANCASTER      MOCLDY    86  46  24 W18       29.86F
PALMDALE       MOCLDY    88  47  24 W15       29.87F
*POPPY PARK      N/A     85  45  24 W13G29      N/A

CITY           SKY/WX    TMP DP  RH WIND       PRES   REMARKS
29 PALMS       PTCLDY    86  65  49 S7        29.93R
BARSTOW/DAGGET CLEAR     91  60  35 E7        29.83R HX  90
BISHOP         CLEAR     79  42  26 N9        29.93R
CHINA LAKE     CLEAR     91  53  27 S8        29.81R
EDWARDS AFB    PTCLDY    86  49  27 W13       29.83R
MOJAVE         FAIR      84  48  28 W22G36    29.87S
NEEDLES        MOCLDY    85  65  51 W6        29.84F
VICTORVILLE    PTCLDY    79  63  57 S7        29.91S

$$

CAZ039-040-170500-
VENTURA AND SANTA BARBARA COUNTY COAST


CITY           SKY/WX    TMP DP  RH WIND       PRES   REMARKS
CAMARILLO      CLEAR     76  60  57 CALM      29.72R
NWS OXNARD       N/A     71  60  68 CALM      29.72R
OXNARD AIRPORT CLEAR     70  61  73 W6        29.72R
*POINT MUGU    PTCLDY    72  60  66 NW6       29.73R
SBA APT/GOLETA CLEAR     84  45  25 VRB3      29.68R
*VENTURA         N/A     73  61  65 CALM      29.78R

$$

CAZ044-045-170500-
VENTURA COUNTY VALLEYS


CITY           SKY/WX    TMP DP  RH WIND       PRES   REMARKS
*SIMI VALLEY     N/A     85  55  36 CALM      29.66R
*OJAI            N/A     80  58  47 CALM      29.64S
*FILLMORE        N/A     77  64  63 CALM      29.63R

$$

CAZ053-170500-
VENTURA COUNTY MOUNTAINS


CITY           SKY/WX    TMP DP  RH WIND       PRES   REMARKS
*LOCKWOOD VLY    N/A     61  41  48 CALM        N/A
*ROSE VALLEY     N/A     73  48  40 MISG        N/A

$$

CAZ034-035-036-170500-
CENTRAL COAST AND SANTA YNEZ VALLEY


CITY           SKY/WX    TMP DP  RH WIND       PRES   REMARKS
SAN LUIS OBISP CLEAR     62  59  90 NW10      29.82R
SANTA MARIA    CLEAR     64  59  83 CALM      29.83R

CITY           SKY/WX    TMP DP  RH WIND       PRES   REMARKS
*CAL POLY SLO    N/A    N/A N/A N/A NW3G10      N/A
*LOMPOC        CLEAR     63  57  82 W7        29.84R
*PISMO BEACH     N/A     65  58  80 CALM      29.82R
*SANTA YNEZ    FAIR      64  55  72 SW5       29.83R

$$

CAZ037-038-051-170500-
SAN LUIS OBISPO COUNTY INTERIOR AND CUYAMA VALLEY


CITY           SKY/WX    TMP DP  RH WIND       PRES   REMARKS
*CUYAMA          N/A     80  44  27 S5        29.75S
PASO ROBLES    CLEAR     77  46  33 NW10      29.81R

$$

CAZ032-033-061-170500-
SOUTHERN DESERTS


CITY           SKY/WX    TMP DP  RH WIND       PRES   REMARKS
BLYTHE         MOCLDY    84  69  60 N9        29.80R
IMPERIAL       PTCLDY    91  64  40 SE12      29.74R HX  92
PALM SPRINGS   CLEAR     94  67  41 E13       29.78R HX  97
THERMAL        CLEAR     93  69  45 E9        29.72R HX  98

$$

ELSEWHERE ACROSS THE WESTERN UNITED STATES AND MEXICO


CITY           SKY/WX    TMP DP  RH WIND       PRES   REMARKS
DENVER, CO     PTCLDY    63  39  41 S16       30.12S
GRAND CANYON,  CLOUDY    64  53  67 SE7       30.25R
HONOLULU, HI   MOCLDY    84  68  58 NE10      29.90R
KAHULUI, MAUI  PTCLDY    82  72  69 NE17      29.91R
LAKE TAHOE, CA CLEAR     61  33  35 VRB3      30.13S
LAS VEGAS, NV  PTCLDY    86  57  37 S26G38    29.83R
MAMMOTH LAKES, FAIR      68  39  34 S7        30.20R
MEXICO CITY, M CLOUDY    61  54  77 S13       30.33R
PHOENIX, AZ    CLOUDY    85  65  51 NE10      29.83R
PORTLAND, OR   CLOUDY    68  56  65 NW7       29.87R
RENO, NV       MOCLDY    77  37  23 W16G25    29.97S
SALT LAKE CITY CLEAR     75  42  30 SE9       29.97R
SAN DIEGO, CA  PTCLDY    82  68  62 CALM      29.73R
SAN FRANCISCO, MOCLDY    67  61  81 W14       29.83R
SAN JOSE, CA   CLEAR     67  58  72 NW8       29.83R
SEATTLE, WA    CLOUDY    64  54  69 SW3       29.89S
TIJUANA, MEX   CLEAR     88  61  40 CALM      29.76R

$$

STATION/POSITION TIME  TEMP    WIND        PRES    VSBY  WAVE
                       AIR SEA DIR/SP/G                  HT/PER
                 (UTC) (F)     (DEG/KT/KT) (MB)    (MI)  (FT/S)
POINT ARGUELLO B NOT AVBL
WEST SANTA BARBA 0400   63 62  320/ 21/ 25 1007.0R         6/17
POINT CONCEPTION NOT AVBL
EAST SANTA BARBA 0200   74 68  280/ 19/ 23 1004.8R
SANTA MONICA BAY 0400   72 74   10/  4/  4 1006.1R         5/19



USA.gov is the U.S. government's official web portal to all federal, state and local government web resources and services.